Location: Haliburton Scout Reserve
(45.0900°N, 78.3200°W)
Time: 18:45:39
(UTC-04:00)

Courier 1B Rocket - Pass Details

Date: 11 February 2023
Orbit: 920 x 1202 km, 28.2° (Epoch: 22 March)

Event Time Altitude Azimuth Distance (km) Brightness Sun altitude
Rises 13:26:01 0° 221° (SW) 3,857 9.1 29.5°
Reaches altitude 10° 13:30:15 10° 198° (SSW) 2,837 9.1 29.3°
Maximum altitude 13:33:42 14° 168° (SSE) 2,472 8.3 29.1°
Drops below altitude 10° 13:37:04 10° 137° (SE) 2,738 7.8 28.9°
Sets 13:41:00 0° 114° (ESE) 3,635 8.0 28.7°
